Главная страница
METAR-TAF:

METAR-TAF

Аэропорты :

Центральная вертолётная станция Манхэттена

Нью-Йорк, Нью-Йорк, США

широта: 40-42-04N, долгота: 074-00-32W, высота над уровнем моря: 2 м

Текущие метеонаблюдения

Эта сводка был подготовлена 27 минут назад, в 12:56 UTC
Ветер 4 Узел от восточно-северо-восточный
Температура 1°C
Влажность 69%
Давление 1035 hPa
ясное небо

METAR: KJRB 081256Z AUTO 07004KT CLR 01/M04 A3056 RMK AO2 SLP349 T00111044 PWINO FZRANO

Время: 08:23 (13:23 UTC)


TAF: отсутствует

Метеонаблюдения и прогнозы для более 4000 аэропортов (сводки METAR и TAF).

Имеющиеся станции представлены на карте желтыми и красными точками.

Чтобы увидеть название станции, наведите на нее мышь.

Затем щелкните, чтобы увидеть метеонаблюдения и метеопрогнозы.

Управление картой: чтобы увеличить масштаб, щелкните зеленые кнопки с черным крестиком; чтобы уменьшить масштаб, щелкните зеленую кнопку с тире; для просмотра соседних карт щелкайте зеленые стрелки.


METAR-TAF: